Regional Weather Roundup
Issued by NWS Newport/Morehead, NC

Current Version | Previous Version | Text Only | Print | Product List | Glossary On
Versions: 1 2 3 4 5 6 7 8 9 10 11 12 13 14 15 16 17 18 19 20 21 22 23 24 25 26 27 28 29 30 31 32 33 34 35 36 37 38 39 40 41 42 43 44 45 46 47 48 49 50
000 ASUS42 KMHX 200825 RWRMHX WEATHER ROUNDUP FOR EASTERN NORTH CAROLINA NATIONAL WEATHER SERVICE NEWPORT/MOREHEAD CITY NC 300 AM EST MON NOV 20 2017 NOTE: "FAIR" INDICATES FEW OR NO CLOUDS BELOW 12,000 FEET WITH NO SIGNIFICANT WEATHER AND/OR OBSTRUCTIONS TO VISIBILITY NCZ015>017-031-032-045>047-102-103-200900- NORTH COAST CITY SKY/WX TMP DP RH WIND PRES REMARKS EDENTON CLEAR 41 31 68 CALM 30.11R ELIZABETH CITY CLEAR 36 29 75 W6 30.09R KITTY HAWK SUNNY 43 31 62 CALM 30.07R MANTEO CLEAR 44 32 62 N6 30.09R $$ NCZ045>047-081-094-103-104-200900- CENTRAL COAST CITY SKY/WX TMP DP RH WIND PRES REMARKS FRISCO CLEAR 47 34 60 NW10G21 30.07R $$ NCZ095-097-098-100-101-200900- SOUTHERN COAST CITY SKY/WX TMP DP RH WIND PRES REMARKS BEAUFORT CLEAR 43 30 60 NW12 30.11R CEDAR ISLAND NOT AVBL JACKSONVILLE NOT AVBL PINEY ISLAND NOT AVBL WILMINGTON CLEAR 37 32 82 NW5 30.14R $$ NCZ011>013-027>030-043-044-078>080-089-090>093-098-200900- COASTAL PLAIN CITY SKY/WX TMP DP RH WIND PRES REMARKS AHOSKIE CLEAR 34 27 75 CALM 30.11S CLINTON CLEAR 34 31 88 CALM 30.15S ELIZABETHTOWN NOT AVBL GOLDSBORO CLEAR 36 28 74 W3 30.12R GREENVILLE CLEAR 34 28 80 CALM 30.14R HAVELOCK NOT AVBL KENANSVILLE CLEAR 30 27 86 CALM 30.14R KINSTON CLEAR 35 28 76 CALM 30.14R NEW BERN CLEAR 37 30 75 CALM 30.14R RICHLANDS CLEAR 29 26 89 CALM 30.14R ROCKY MOUNT CLEAR 35 28 75 SW3 30.13R WASHINGTON PTCLDY 37 28 69 CALM 30.13R WHITEVILLE CLEAR 37 31 77 CALM 30.14R $$ AMZ130-135-150-152-154-156-158-170-250-252-270-ANZ085-086-088-633-658-670-200900- MARINE OBSERVATIONS STATION/POSITION TIME TEMP WIND PRES WAVE SWELL AIR SEA DIR/SP/G HT/PER HT/PER (UTC) (F) (DEG/KT/KT) (MB) (FT/S) (FT/S) CHESAPEAKE LIGHT NOT AVBL 64 E VA BEACH 0750 51 60 320/ 17/ 21 1017.2 7/ 8 5/ 8 DUCK 0800 44 60 300/ 15/ 18 1018.1 2 E DUCK 0800 61 N/A 4/ 6 OREGON INLET 0800 300/ 10/ 14 N/A 13E OREGON INLT 0748 62 N/A 6/ 7 5/ 7 HATTERAS CG 0800 48 60 340/ 19/ 24 1017.9 DIAMOND BUOY 0810 51 66 320/ 19/ 23 1018.1 CAPE LOOKOUT 0800 330/ 16/ 21 1019.5 BEAUFORT LAB 0800 43 59 320/ 5/ 7 1019.6 30 SE NEW RVR IN 0808 51 68 10/ 14/ 19 1019.7 30 SE NEW RVR IN 0800 68 N/A 5/ 5 27 SE WRIGHTSVLE 0708 51 68 10/ 19/ 27 1019.3 5 SE WRIGHTSVLE 0808 48 64 360/ 12/ 17 1019.8 225 S CAPE HAT 0750 67 76 350/ 19/ 25 1015.8 8/ 8 41 SE CHARLESTON 0810 59 73 30/ 16/ 19 1019.3 $$

USA.gov is the U.S. government's official web portal to all federal, state and local government web resources and services.